Location: Raleigh
(35.7720°N, 78.6390°W)
Time: 22:26:18
(UTC-04:00)

FO-29 - Visible Passes

Search period start: 27 March 2017 00:00
Search period end: 06 April 2017 00:00
Orbit: 800 x 1321 km, 98.6° (Epoch: 26 March)

Date Brightness Start Highest point End Pass type
(mag) Time Alt. Az. Time Alt. Az. Time Alt. Az.
29 Mar 12.2 00:21:18 10° N 00:21:18 10° N 00:21:18 10° N visible
31 Mar 12.2 00:16:19 10° N 00:16:23 10° N 00:16:23 10° N visible
02 Apr 12.1 00:11:20 10° N 00:11:28 11° N 00:11:28 11° N visible
04 Apr 12.0 00:06:20 10° N 00:06:33 11° N 00:06:33 11° N visible
05 Apr 12.2 00:57:18 10° NNW 00:57:19 10° NNW 00:57:19 10° NNW visible
